Time,TemperatureF,DewpointF,PressureIn,WindDirection,WindDirectionDegrees,WindSpeedMPH,WindSpeedGustMPH,Humidity,HourlyPrecipIn,Conditions,Clouds,dailyrainin,SoftwareType,DateUTC
2013-04-15 00:03:00,54.0,46.0,29.82,SE,143,4.0,-999.0,73,-99.99,,,-99.99,,2013-04-15 04:03:00,
2013-04-15 00:13:00,54.0,46.0,29.82,SE,143,4.0,-999.0,73,-99.99,,,-99.99,,2013-04-15 04:13:00,
2013-04-15 00:23:00,53.0,45.0,29.82,East,100,3.0,-999.0,73,-99.99,,,-99.99,,2013-04-15 04:23:00,
2013-04-15 00:33:00,53.0,45.0,29.80,SE,137,5.0,-999.0,73,-99.99,,,-99.99,,2013-04-15 04:33:00,
2013-04-15 00:42:00,53.0,45.0,29.80,SE,137,5.0,-999.0,73,-99.99,,,-99.99,,2013-04-15 04:42:00,
2013-04-15 00:52:00,53.0,45.0,29.80,ESE,119,3.0,-999.0,73,-99.99,,,-99.99,,2013-04-15 04:52:00,
2013-04-15 01:02:00,53.0,45.0,29.81,SE,143,3.0,-999.0,73,-99.99,,,-99.99,,2013-04-15 05:02:00,
2013-04-15 01:12:00,53.0,45.0,29.81,SE,143,3.0,-999.0,73,-99.99,,,-99.99,,2013-04-15 05:12:00,
2013-04-15 01:23:00,53.0,45.0,29.81,SE,136,2.0,-999.0,73,-99.99,,,-99.99,,2013-04-15 05:23:00,
2013-04-15 01:32:00,54.0,45.0,29.82,SE,143,3.0,-999.0,72,-99.99,,,-99.99,,2013-04-15 05:32:00,
2013-04-15 01:42:00,54.0,45.0,29.82,SE,143,3.0,-999.0,72,-99.99,,,-99.99,,2013-04-15 05:42:00,
2013-04-15 01:53:00,54.0,45.0,29.81,SE,134,3.0,-999.0,71,-99.99,,,-99.99,,2013-04-15 05:53:00,
2013-04-15 02:02:00,54.0,45.0,29.81,SE,126,3.0,-999.0,71,-99.99,,,-99.99,,2013-04-15 06:02:00,
2013-04-15 02:12:00,54.0,45.0,29.81,SE,126,3.0,-999.0,71,-99.99,,,-99.99,,2013-04-15 06:12:00,
2013-04-15 02:22:00,54.0,45.0,29.82,SE,126,3.0,-999.0,71,-99.99,,,-99.99,,2013-04-15 06:22:00,
2013-04-15 02:33:00,54.0,45.0,29.81,SE,130,3.0,-999.0,71,-99.99,,,-99.99,,2013-04-15 06:33:00,
2013-04-15 02:42:00,54.0,45.0,29.81,SE,130,3.0,-999.0,71,-99.99,,,-99.99,,2013-04-15 06:42:00,
2013-04-15 02:52:00,54.0,45.0,29.82,SE,127,3.0,-999.0,72,-99.99,,,-99.99,,2013-04-15 06:52:00,
2013-04-15 03:02:00,54.0,45.0,29.82,SE,127,2.0,-999.0,72,-99.99,,,-99.99,,2013-04-15 07:02:00,
2013-04-15 03:41:00,53.0,45.0,29.83,SE,143,2.0,-999.0,73,-99.99,,,-99.99,,2013-04-15 07:41:00,
2013-04-15 03:42:00,53.0,45.0,29.84,SE,136,2.0,-999.0,73,-99.99,,,-99.99,,2013-04-15 07:42:00,
2013-04-15 03:53:00,54.0,46.0,29.85,SE,136,2.0,-999.0,73,-99.99,,,-99.99,,2013-04-15 07:53:00,
2013-04-15 04:02:00,54.0,46.0,29.86,South,179,1.0,-999.0,73,-99.99,,,-99.99,,2013-04-15 08:02:00,
2013-04-15 04:13:00,54.0,46.0,29.86,South,179,1.0,-999.0,73,-99.99,,,-99.99,,2013-04-15 08:13:00,
2013-04-15 04:22:00,54.0,46.0,29.86,South,179,0.0,-999.0,73,-99.99,,,-99.99,,2013-04-15 08:22:00,
2013-04-15 04:33:00,54.0,45.0,29.86,South,179,1.0,-999.0,72,-99.99,,,-99.99,,2013-04-15 08:33:00,
2013-04-15 04:42:00,54.0,45.0,29.86,South,179,1.0,-999.0,72,-99.99,,,-99.99,,2013-04-15 08:42:00,
2013-04-15 04:52:00,57.0,46.0,29.87,SSW,195,5.0,-999.0,67,-99.99,,,-99.99,,2013-04-15 08:52:00,
2013-04-15 05:02:00,58.0,46.0,29.86,South,186,5.0,-999.0,65,-99.99,,,-99.99,,2013-04-15 09:02:00,
2013-04-15 05:12:00,58.0,46.0,29.86,South,186,5.0,-999.0,65,-99.99,,,-99.99,,2013-04-15 09:12:00,
2013-04-15 05:23:00,58.0,46.0,29.86,WSW,240,6.0,-999.0,64,-99.99,,,-99.99,,2013-04-15 09:23:00,
2013-04-15 05:32:00,58.0,46.0,29.86,SSW,192,6.0,-999.0,65,-99.99,,,-99.99,,2013-04-15 09:32:00,
2013-04-15 05:42:00,58.0,46.0,29.86,SSW,192,6.0,-999.0,65,-99.99,,,-99.99,,2013-04-15 09:42:00,
2013-04-15 05:53:00,59.0,47.0,29.86,SW,220,6.0,-999.0,65,-99.99,,,-99.99,,2013-04-15 09:53:00,
2013-04-15 06:02:00,58.0,47.0,29.85,SSW,192,4.0,-999.0,66,-99.99,,,-99.99,,2013-04-15 10:02:00,
2013-04-15 06:13:00,58.0,47.0,29.85,SSW,192,4.0,-999.0,66,-99.99,,,-99.99,,2013-04-15 10:13:00,
2013-04-15 06:23:00,58.0,47.0,29.84,SSW,193,4.0,-999.0,67,-99.99,,,-99.99,,2013-04-15 10:23:00,
2013-04-15 06:33:00,58.0,47.0,29.83,SSE,157,4.0,-999.0,67,-99.99,,,-99.99,,2013-04-15 10:33:00,
2013-04-15 06:42:00,58.0,47.0,29.83,SSE,157,4.0,-999.0,67,-99.99,,,-99.99,,2013-04-15 10:42:00,
2013-04-15 06:53:00,58.0,47.0,29.84,South,178,4.0,-999.0,67,-99.99,,,-99.99,,2013-04-15 10:53:00,
2013-04-15 07:03:00,57.0,47.0,29.84,South,184,3.0,-999.0,68,-99.99,,,-99.99,,2013-04-15 11:03:00,
2013-04-15 07:12:00,57.0,47.0,29.84,South,184,3.0,-999.0,68,-99.99,,,-99.99,,2013-04-15 11:12:00,
2013-04-15 07:22:00,57.0,47.0,29.85,SW,219,3.0,-999.0,69,-99.99,,,-99.99,,2013-04-15 11:22:00,
2013-04-15 07:32:00,56.0,46.0,29.86,South,186,2.0,-999.0,70,-99.99,,,-99.99,,2013-04-15 11:32:00,
2013-04-15 07:42:00,56.0,46.0,29.86,South,186,2.0,-999.0,70,-99.99,,,-99.99,,2013-04-15 11:42:00,
2013-04-15 07:53:00,56.0,47.0,29.87,South,188,2.0,-999.0,71,-99.99,,,-99.99,,2013-04-15 11:53:00,
2013-04-15 08:04:00,56.0,47.0,29.88,SE,140,2.0,-999.0,72,-99.99,,,-99.99,,2013-04-15 12:04:00,
2013-04-15 08:14:00,56.0,47.0,29.88,SE,140,2.0,-999.0,72,-99.99,,,-99.99,,2013-04-15 12:14:00,
2013-04-15 08:23:00,55.0,47.0,29.88,SE,143,2.0,-999.0,73,-99.99,,,-99.99,,2013-04-15 12:23:00,
2013-04-15 08:33:00,55.0,47.0,29.89,South,175,2.0,-999.0,73,-99.99,,,-99.99,,2013-04-15 12:33:00,
2013-04-15 08:43:00,55.0,47.0,29.89,South,175,2.0,-999.0,73,-99.99,,,-99.99,,2013-04-15 12:43:00,
2013-04-15 08:53:00,56.0,47.0,29.89,SE,128,3.0,-999.0,73,-99.99,,,-99.99,,2013-04-15 12:53:00,
2013-04-15 09:03:00,56.0,47.0,29.90,South,182,3.0,-999.0,73,-99.99,,,-99.99,,2013-04-15 13:03:00,
2013-04-15 09:12:00,56.0,47.0,29.90,South,182,3.0,-999.0,73,-99.99,,,-99.99,,2013-04-15 13:12:00,
2013-04-15 09:23:00,56.0,47.0,29.90,South,185,3.0,-999.0,73,-99.99,,,-99.99,,2013-04-15 13:23:00,
2013-04-15 09:33:00,57.0,48.0,29.89,South,172,4.0,-999.0,73,-99.99,,,-99.99,,2013-04-15 13:33:00,
2013-04-15 09:43:00,57.0,48.0,29.89,South,172,4.0,-999.0,73,-99.99,,,-99.99,,2013-04-15 13:43:00,
2013-04-15 09:54:00,57.0,48.0,29.88,SW,224,4.0,-999.0,72,-99.99,,,-99.99,,2013-04-15 13:54:00,
2013-04-15 10:04:00,58.0,49.0,29.89,South,176,4.0,-999.0,71,-99.99,,,-99.99,,2013-04-15 14:04:00,
2013-04-15 10:12:00,58.0,49.0,29.89,South,176,4.0,-999.0,71,-99.99,,,-99.99,,2013-04-15 14:12:00,
2013-04-15 10:22:00,58.0,49.0,29.89,South,179,4.0,-999.0,71,-99.99,,,-99.99,,2013-04-15 14:22:00,
2013-04-15 10:33:00,59.0,50.0,29.89,South,188,4.0,-999.0,71,-99.99,,,-99.99,,2013-04-15 14:33:00,
2013-04-15 10:44:00,59.0,50.0,29.89,South,188,4.0,-999.0,71,-99.99,,,-99.99,,2013-04-15 14:44:00,
2013-04-15 10:54:00,59.0,50.0,29.89,SSW,196,5.0,-999.0,71,-99.99,,,-99.99,,2013-04-15 14:54:00,
2013-04-15 11:03:00,59.0,50.0,29.87,SSW,202,6.0,-999.0,71,-99.99,,,-99.99,,2013-04-15 15:03:00,
2013-04-15 11:13:00,59.0,50.0,29.87,SSW,202,6.0,-999.0,71,-99.99,,,-99.99,,2013-04-15 15:13:00,
2013-04-15 11:23:00,60.0,50.0,29.87,South,185,5.0,-999.0,70,-99.99,,,-99.99,,2013-04-15 15:23:00,
2013-04-15 11:35:00,60.0,51.0,29.88,SW,222,4.0,-999.0,71,-99.99,,,-99.99,,2013-04-15 15:35:00,
2013-04-15 11:43:00,60.0,51.0,29.88,SW,222,4.0,-999.0,71,-99.99,,,-99.99,,2013-04-15 15:43:00,
2013-04-15 11:54:00,60.0,50.0,29.88,South,179,5.0,-999.0,70,-99.99,,,-99.99,,2013-04-15 15:54:00,
2013-04-15 12:04:00,61.0,51.0,29.89,South,181,6.0,-999.0,70,-99.99,,,-99.99,,2013-04-15 16:04:00,
2013-04-15 12:13:00,61.0,51.0,29.89,South,181,6.0,-999.0,70,-99.99,,,-99.99,,2013-04-15 16:13:00,
2013-04-15 12:24:00,61.0,52.0,29.90,South,191,6.0,-999.0,71,-99.99,,,-99.99,,2013-04-15 16:24:00,
2013-04-15 12:33:00,61.0,52.0,29.91,SSW,195,6.0,-999.0,72,-99.99,,,-99.99,,2013-04-15 16:33:00,
2013-04-15 12:44:00,61.0,52.0,29.91,SSW,195,6.0,-999.0,72,-99.99,,,-99.99,,2013-04-15 16:44:00,
2013-04-15 12:54:00,61.0,52.0,29.91,South,184,4.0,-999.0,73,-99.99,,,-99.99,,2013-04-15 16:54:00,
2013-04-15 13:03:00,61.0,52.0,29.91,WSW,251,5.0,-999.0,72,-99.99,,,-99.99,,2013-04-15 17:03:00,
2013-04-15 13:14:00,61.0,52.0,29.91,WSW,251,5.0,-999.0,72,-99.99,,,-99.99,,2013-04-15 17:14:00,
2013-04-15 13:22:00,61.0,52.0,29.91,SSW,198,4.0,-999.0,72,-99.99,,,-99.99,,2013-04-15 17:22:00,
2013-04-15 13:33:00,62.0,53.0,29.91,South,178,5.0,-999.0,73,-99.99,,,-99.99,,2013-04-15 17:33:00,
2013-04-15 13:43:00,62.0,53.0,29.91,South,178,5.0,-999.0,73,-99.99,,,-99.99,,2013-04-15 17:43:00,
2013-04-15 13:52:00,62.0,53.0,29.89,SW,215,5.0,-999.0,73,-99.99,,,-99.99,,2013-04-15 17:52:00,
2013-04-15 14:03:00,62.0,53.0,29.89,SSE,161,4.0,-999.0,73,-99.99,,,-99.99,,2013-04-15 18:03:00,
2013-04-15 14:12:00,62.0,53.0,29.89,SSE,161,4.0,-999.0,73,-99.99,,,-99.99,,2013-04-15 18:12:00,
2013-04-15 14:23:00,62.0,53.0,29.89,South,176,3.0,-999.0,73,-99.99,,,-99.99,,2013-04-15 18:23:00,
2013-04-15 14:32:00,62.0,53.0,29.88,SW,220,4.0,-999.0,73,-99.99,,,-99.99,,2013-04-15 18:32:00,
2013-04-15 14:42:00,62.0,53.0,29.88,SW,220,4.0,-999.0,73,-99.99,,,-99.99,,2013-04-15 18:42:00,
2013-04-15 14:52:00,62.0,54.0,29.89,South,182,5.0,-999.0,74,-99.99,,,-99.99,,2013-04-15 18:52:00,
2013-04-15 15:02:00,63.0,54.0,29.88,South,185,3.0,-999.0,73,-99.99,,,-99.99,,2013-04-15 19:02:00,
2013-04-15 15:12:00,63.0,54.0,29.88,South,185,3.0,-999.0,73,-99.99,,,-99.99,,2013-04-15 19:12:00,
2013-04-15 15:22:00,62.0,54.0,29.89,SE,140,4.0,-999.0,74,-99.99,,,-99.99,,2013-04-15 19:22:00,
2013-04-15 15:35:00,63.0,55.0,29.88,SE,141,3.0,-999.0,74,-99.99,,,-99.99,,2013-04-15 19:35:00,
2013-04-15 16:01:00,64.0,54.0,29.87,South,172,4.0,-999.0,71,-99.99,,,-99.99,,2013-04-15 20:01:00,
2013-04-15 16:02:00,65.0,56.0,29.87,SW,220,5.0,-999.0,72,-99.99,,,-99.99,,2013-04-15 20:02:00,
2013-04-15 16:11:00,65.0,56.0,29.87,SW,220,5.0,-999.0,72,-99.99,,,-99.99,,2013-04-15 20:11:00,
2013-04-15 16:22:00,66.0,56.0,29.88,South,186,4.0,-999.0,69,-99.99,,,-99.99,,2013-04-15 20:22:00,
2013-04-15 16:32:00,64.0,55.0,29.88,South,184,4.0,-999.0,72,-99.99,,,-99.99,,2013-04-15 20:32:00,
2013-04-15 16:42:00,64.0,55.0,29.88,South,184,4.0,-999.0,72,-99.99,,,-99.99,,2013-04-15 20:42:00,
2013-04-15 16:52:00,64.0,55.0,29.89,South,184,4.0,-999.0,73,-99.99,,,-99.99,,2013-04-15 20:52:00,
2013-04-15 17:02:00,63.0,54.0,29.89,SSW,202,4.0,-999.0,73,-99.99,,,-99.99,,2013-04-15 21:02:00,
2013-04-15 17:12:00,63.0,54.0,29.89,SSW,202,4.0,-999.0,73,-99.99,,,-99.99,,2013-04-15 21:12:00,
2013-04-15 17:22:00,63.0,55.0,29.89,SSW,212,4.0,-999.0,75,-99.99,,,-99.99,,2013-04-15 21:22:00,
2013-04-15 17:32:00,63.0,55.0,29.90,South,185,4.0,-999.0,76,-99.99,,,-99.99,,2013-04-15 21:32:00,
2013-04-15 17:42:00,63.0,55.0,29.90,South,185,4.0,-999.0,76,-99.99,,,-99.99,,2013-04-15 21:42:00,
2013-04-15 17:53:00,62.0,55.0,29.90,SSW,208,3.0,-999.0,78,-99.99,,,-99.99,,2013-04-15 21:53:00,
2013-04-15 18:02:00,62.0,55.0,29.90,South,184,1.0,-999.0,79,-99.99,,,-99.99,,2013-04-15 22:02:00,
2013-04-15 18:13:00,62.0,55.0,29.90,South,184,1.0,-999.0,79,-99.99,,,-99.99,,2013-04-15 22:13:00,
2013-04-15 18:23:00,62.0,56.0,29.89,South,185,1.0,-999.0,80,-99.99,,,-99.99,,2013-04-15 22:23:00,
2013-04-15 18:33:00,61.0,56.0,29.89,South,185,0.0,-999.0,83,-99.99,,,-99.99,,2013-04-15 22:33:00,
2013-04-15 18:42:00,61.0,56.0,29.89,South,185,0.0,-999.0,83,-99.99,,,-99.99,,2013-04-15 22:42:00,
2013-04-15 18:52:00,61.0,57.0,29.88,South,185,0.0,-999.0,86,-99.99,,,-99.99,,2013-04-15 22:52:00,
2013-04-15 19:02:00,60.0,56.0,29.91,South,185,0.0,-999.0,88,-99.99,,,-99.99,,2013-04-15 23:02:00,
2013-04-15 19:12:00,60.0,56.0,29.91,South,185,0.0,-999.0,88,-99.99,,,-99.99,,2013-04-15 23:12:00,
2013-04-15 19:22:00,60.0,57.0,29.91,South,185,0.0,-999.0,89,-99.99,,,-99.99,,2013-04-15 23:22:00,
2013-04-15 19:32:00,60.0,57.0,29.90,South,185,0.0,-999.0,90,-99.99,,,-99.99,,2013-04-15 23:32:00,
2013-04-15 19:42:00,60.0,57.0,29.90,South,185,0.0,-999.0,90,-99.99,,,-99.99,,2013-04-15 23:42:00,
2013-04-15 19:52:00,60.0,57.0,29.91,South,184,0.0,-999.0,91,-99.99,,,-99.99,,2013-04-15 23:52:00,
2013-04-15 20:02:00,59.0,57.0,29.91,South,184,0.0,-999.0,92,-99.99,,,-99.99,,2013-04-16 00:02:00,
2013-04-15 20:12:00,59.0,57.0,29.91,South,184,0.0,-999.0,92,-99.99,,,-99.99,,2013-04-16 00:12:00,
2013-04-15 20:22:00,59.0,57.0,29.91,South,184,0.0,-999.0,93,-99.99,,,-99.99,,2013-04-16 00:22:00,
2013-04-15 20:32:00,59.0,57.0,29.91,South,185,0.0,-999.0,93,-99.99,,,-99.99,,2013-04-16 00:32:00,
2013-04-15 20:42:00,59.0,57.0,29.91,South,185,0.0,-999.0,93,-99.99,,,-99.99,,2013-04-16 00:42:00,
2013-04-15 20:52:00,59.0,57.0,29.92,South,185,1.0,-999.0,94,-99.99,,,-99.99,,2013-04-16 00:52:00,
2013-04-15 21:02:00,58.0,56.0,29.91,South,185,0.0,-999.0,94,-99.99,,,-99.99,,2013-04-16 01:02:00,
2013-04-15 21:12:00,58.0,57.0,29.91,South,184,0.0,-999.0,95,-99.99,,,-99.99,,2013-04-16 01:12:00,
2013-04-15 21:22:00,58.0,57.0,29.91,South,184,0.0,-999.0,95,-99.99,,,-99.99,,2013-04-16 01:22:00,
2013-04-15 21:32:00,56.0,54.0,29.92,WNW,295,1.0,-999.0,94,-99.99,,,-99.99,,2013-04-16 01:32:00,
2013-04-15 21:42:00,56.0,54.0,29.92,WNW,295,1.0,-999.0,94,-99.99,,,-99.99,,2013-04-16 01:42:00,
2013-04-15 21:52:00,54.0,52.0,29.93,NNW,337,1.0,-999.0,94,-99.99,,,-99.99,,2013-04-16 01:52:00,
2013-04-15 22:02:00,53.0,51.0,29.93,NNE,24,0.0,-999.0,94,-99.99,,,-99.99,,2013-04-16 02:02:00,
2013-04-15 22:12:00,53.0,51.0,29.93,NNE,24,0.0,-999.0,94,-99.99,,,-99.99,,2013-04-16 02:12:00,
2013-04-15 22:22:00,52.0,50.0,29.94,NNE,30,1.0,-999.0,94,-99.99,,,-99.99,,2013-04-16 02:22:00,
2013-04-15 22:32:00,51.0,49.0,29.93,NNE,28,1.0,-999.0,94,-99.99,,,-99.99,,2013-04-16 02:32:00,
2013-04-15 22:42:00,51.0,49.0,29.93,NNE,28,1.0,-999.0,94,-99.99,,,-99.99,,2013-04-16 02:42:00,
2013-04-15 22:52:00,50.0,48.0,29.97,North,3,2.0,-999.0,94,-99.99,,,-99.99,,2013-04-16 02:52:00,
2013-04-15 23:02:00,49.0,47.0,29.96,North,6,3.0,-999.0,94,-99.99,,,-99.99,,2013-04-16 03:02:00,
2013-04-15 23:12:00,49.0,47.0,29.96,North,6,3.0,-999.0,94,-99.99,,,-99.99,,2013-04-16 03:12:00,
2013-04-15 23:22:00,48.0,46.0,29.97,North,360,2.0,-999.0,94,-99.99,,,-99.99,,2013-04-16 03:22:00,
2013-04-15 23:33:00,47.0,45.0,29.96,NNE,23,2.0,-999.0,94,-99.99,,,-99.99,,2013-04-16 03:33:00,
2013-04-15 23:43:00,47.0,45.0,29.96,NNE,23,2.0,-999.0,94,-99.99,,,-99.99,,2013-04-16 03:43:00,
2013-04-15 23:52:00,46.0,44.0,29.97,West,278,1.0,-999.0,94,-99.99,,,-99.99,,2013-04-16 03:52:00,